EN

Hourly Weather Ambanja

Today, 22 January, Friday

Time Temperature Precipitation Wind Pressure Humidity
00:00 +26°C° 0 mm 1 mps 754 mmHg 93%
01:00 +26°C° 0 mm 1 mps 753 mmHg 93%
02:00 +25°C° 0 mm 1 mps 753 mmHg 93%
03:00 +25°C° 0 mm 1 mps 753 mmHg 93%
04:00 +25°C° 0 mm 1 mps 753 mmHg 93%
05:00 +25°C° 0 mm 1 mps 754 mmHg 92%
06:00 +25°C° 0 mm 1 mps 754 mmHg 92%
07:00 +28°C° 0 mm 1 mps 754 mmHg 84%
08:00 +30°C° 0 mm 1 mps 754 mmHg 76%
09:00 +30°C° 0 mm 0 mps 754 mmHg 68%
10:00 +32°C° 0.2 mm 1 mps 754 mmHg 69%
11:00 +32°C° 0.2 mm 1 mps 753 mmHg 70%
12:00 +32°C° 0.2 mm 2 mps 753 mmHg 71%
13:00 +32°C° 0.8 mm 2 mps 753 mmHg 74%
14:00 +31°C° 0.8 mm 2 mps 752 mmHg 77%
15:00 +31°C° 0.8 mm 1 mps 752 mmHg 80%
16:00 +30°C° 0.5 mm 1 mps 752 mmHg 82%
17:00 +29°C° 0.5 mm 1 mps 753 mmHg 85%
18:00 +29°C° 0.5 mm 1 mps 753 mmHg 88%
19:00 +28°C° 0.7 mm 1 mps 753 mmHg 89%
20:00 +28°C° 0.7 mm 1 mps 754 mmHg 90%
21:00 +27°C° 0.7 mm 1 mps 754 mmHg 91%
22:00 +27°C° 0 mm 1 mps 754 mmHg 92%
23:00 +27°C° 0 mm 1 mps 754 mmHg 93%

Tomorrow, 23 January, Saturday

Time Temperature Precipitation Wind Pressure Humidity
00:00 +26°C° 0 mm 1 mps 753 mmHg 93%
01:00 +26°C° 0.1 mm 1 mps 753 mmHg 94%
02:00 +26°C° 0.1 mm 1 mps 753 mmHg 94%
03:00 +26°C° 0.1 mm 1 mps 752 mmHg 94%
04:00 +26°C° 0 mm 1 mps 753 mmHg 93%
05:00 +26°C° 0 mm 1 mps 753 mmHg 93%
06:00 +26°C° 0 mm 1 mps 753 mmHg 93%
07:00 +27°C° 0.1 mm 1 mps 753 mmHg 86%
08:00 +29°C° 0.1 mm 1 mps 754 mmHg 80%
09:00 +29°C° 0.1 mm 0 mps 754 mmHg 73%
10:00 +31°C° 1 mm 1 mps 754 mmHg 76%
11:00 +31°C° 1 mm 1 mps 753 mmHg 78%
12:00 +31°C° 1 mm 2 mps 753 mmHg 81%
13:00 +30°C° 1.3 mm 2 mps 752 mmHg 82%
14:00 +30°C° 1.3 mm 1 mps 752 mmHg 83%
15:00 +30°C° 1.3 mm 1 mps 751 mmHg 85%
16:00 +29°C° 2.3 mm 1 mps 752 mmHg 87%
17:00 +28°C° 2.3 mm 1 mps 752 mmHg 88%
18:00 +28°C° 2.3 mm 1 mps 752 mmHg 90%
19:00 +27°C° 1.7 mm 1 mps 753 mmHg 90%
20:00 +27°C° 1.7 mm 1 mps 753 mmHg 91%
21:00 +27°C° 1.7 mm 1 mps 754 mmHg 91%
22:00 +26°C° 0.6 mm 1 mps 753 mmHg 92%
23:00 +26°C° 0.6 mm 1 mps 753 mmHg 93%

Day after tomorrow, 24 January, Sunday

Time Temperature Precipitation Wind Pressure Humidity
00:00 +26°C° 0.6 mm 1 mps 753 mmHg 93%
01:00 +26°C° 0.1 mm 1 mps 753 mmHg 94%
02:00 +26°C° 0.1 mm 1 mps 753 mmHg 94%
03:00 +26°C° 0.1 mm 1 mps 752 mmHg 94%
04:00 +25°C° 0 mm 1 mps 753 mmHg 94%
05:00 +25°C° 0 mm 1 mps 753 mmHg 94%
06:00 +25°C° 0 mm 1 mps 753 mmHg 94%
07:00 +27°C° 0 mm 1 mps 754 mmHg 87%
08:00 +29°C° 0 mm 1 mps 754 mmHg 80%
09:00 +29°C° 0 mm 0 mps 754 mmHg 73%
10:00 +31°C° 0.1 mm 1 mps 754 mmHg 70%
11:00 +32°C° 0.1 mm 2 mps 753 mmHg 68%
12:00 +32°C° 0.1 mm 2 mps 753 mmHg 65%
13:00 +32°C° 0.4 mm 2 mps 752 mmHg 69%
14:00 +31°C° 0.4 mm 2 mps 752 mmHg 73%
15:00 +30°C° 0.4 mm 2 mps 752 mmHg 78%
16:00 +29°C° 0.9 mm 1 mps 752 mmHg 81%
17:00 +28°C° 0.9 mm 1 mps 752 mmHg 84%
18:00 +28°C° 0.9 mm 1 mps 753 mmHg 87%
19:00 +25°C° 0.8 mm 0 mps 753 mmHg 88%
20:00 +25°C° 0.8 mm 0 mps 754 mmHg 89%
21:00 +24°C° 0.8 mm 0 mps 754 mmHg 90%
22:00 +24°C° 0.3 mm 0 mps 754 mmHg 90%
23:00 +24°C° 0.3 mm 0 mps 754 mmHg 91%

25 January, Monday

Time Temperature Precipitation Wind Pressure Humidity
00:00 +24°C° 0.3 mm 0 mps 754 mmHg 91%
01:00 +24°C° 0.1 mm 0 mps 754 mmHg 92%
02:00 +25°C° 0.1 mm 1 mps 753 mmHg 92%
03:00 +25°C° 0.1 mm 1 mps 753 mmHg 93%
04:00 +25°C° 0 mm 1 mps 753 mmHg 92%
05:00 +25°C° 0 mm 1 mps 754 mmHg 92%
06:00 +25°C° 0 mm 1 mps 754 mmHg 92%
07:00 +27°C° 0.1 mm 1 mps 755 mmHg 86%
08:00 +26°C° 0.1 mm 0 mps 755 mmHg 80%
09:00 +28°C° 0.1 mm 0 mps 755 mmHg 75%
10:00 +30°C° 0.3 mm 1 mps 755 mmHg 76%
11:00 +30°C° 0.3 mm 1 mps 754 mmHg 77%
12:00 +30°C° 0.3 mm 1 mps 754 mmHg 78%
13:00 +30°C° 0.3 mm 1 mps 753 mmHg 78%
14:00 +30°C° 0.3 mm 1 mps 753 mmHg 78%
15:00 +30°C° 0.3 mm 1 mps 752 mmHg 78%
16:00 +29°C° 0.2 mm 1 mps 753 mmHg 81%
17:00 +29°C° 0.2 mm 1 mps 753 mmHg 84%
18:00 +28°C° 0.2 mm 1 mps 753 mmHg 87%
19:00 +27°C° 0.3 mm 1 mps 753 mmHg 89%
20:00 +27°C° 0.3 mm 1 mps 754 mmHg 90%
21:00 +26°C° 0.3 mm 1 mps 754 mmHg 92%
22:00 +26°C° 0.1 mm 1 mps 754 mmHg 92%
23:00 +26°C° 0.1 mm 1 mps 754 mmHg 92%

26 January, Tuesday

Time Temperature Precipitation Wind Pressure Humidity
00:00 +26°C° 0.1 mm 1 mps 754 mmHg 93%
01:00 +26°C° 0.2 mm 1 mps 754 mmHg 93%
02:00 +25°C° 0.2 mm 1 mps 753 mmHg 93%
03:00 +25°C° 0.2 mm 1 mps 753 mmHg 94%
04:00 +25°C° 0.4 mm 1 mps 753 mmHg 94%
05:00 +25°C° 0.4 mm 1 mps 754 mmHg 93%
06:00 +25°C° 0.4 mm 1 mps 754 mmHg 93%
07:00 +27°C° 0 mm 1 mps 754 mmHg 87%
08:00 +27°C° 0 mm 0 mps 754 mmHg 80%
09:00 +29°C° 0 mm 0 mps 754 mmHg 73%
10:00 +31°C° 1 mm 1 mps 754 mmHg 75%
11:00 +31°C° 1 mm 1 mps 754 mmHg 78%
12:00 +30°C° 1 mm 1 mps 753 mmHg 80%
13:00 +30°C° 1.2 mm 2 mps 753 mmHg 81%
14:00 +30°C° 1.2 mm 2 mps 752 mmHg 83%
15:00 +30°C° 1.2 mm 2 mps 752 mmHg 84%
16:00 +29°C° 1 mm 2 mps 752 mmHg 86%
17:00 +29°C° 1 mm 2 mps 752 mmHg 88%
18:00 +28°C° 1 mm 2 mps 752 mmHg 90%
19:00 +27°C° 2.9 mm 2 mps 753 mmHg 91%
20:00 +27°C° 2.9 mm 2 mps 753 mmHg 92%
21:00 +26°C° 2.9 mm 2 mps 754 mmHg 92%
22:00 +26°C° 2.5 mm 1 mps 754 mmHg 93%
23:00 +26°C° 2.5 mm 1 mps 754 mmHg 93%

27 January, Wednesday

Time Temperature Precipitation Wind Pressure Humidity
00:00 +26°C° 2.5 mm 1 mps 754 mmHg 94%
01:00 +26°C° 1.1 mm 1 mps 753 mmHg 94%
02:00 +25°C° 1.1 mm 1 mps 753 mmHg 95%
03:00 +25°C° 1.1 mm 1 mps 752 mmHg 95%
04:00 +25°C° 0.1 mm 1 mps 753 mmHg 95%
05:00 +25°C° 0.1 mm 1 mps 753 mmHg 94%
06:00 +25°C° 0.1 mm 1 mps 753 mmHg 94%
07:00 +27°C° 0.4 mm 1 mps 754 mmHg 88%
08:00 +27°C° 0.4 mm 0 mps 754 mmHg 82%
09:00 +28°C° 0.4 mm 0 mps 754 mmHg 76%
10:00 +31°C° 0.6 mm 1 mps 754 mmHg 75%
11:00 +31°C° 0.6 mm 1 mps 753 mmHg 74%
12:00 +31°C° 0.6 mm 2 mps 753 mmHg 74%
13:00 +31°C° 0.9 mm 2 mps 752 mmHg 76%
14:00 +30°C° 0.9 mm 2 mps 752 mmHg 78%
15:00 +30°C° 0.9 mm 2 mps 751 mmHg 80%
16:00 +29°C° 0.8 mm 1 mps 752 mmHg 83%
17:00 +28°C° 0.8 mm 1 mps 752 mmHg 85%
18:00 +28°C° 0.8 mm 1 mps 752 mmHg 88%
19:00 +27°C° 0.5 mm 1 mps 752 mmHg 89%
20:00 +27°C° 0.5 mm 1 mps 753 mmHg 90%
21:00 +26°C° 0.5 mm 1 mps 753 mmHg 92%
22:00 +26°C° 1.1 mm 1 mps 753 mmHg 92%
23:00 +25°C° 1.1 mm 1 mps 753 mmHg 92%
Show more